• In Belarus
  • List of Countries
  • For 7 days
  • Water Temperature
  • Satellite Maps
  • Weather Map
  • Weather Widgets
  • user-avatar
    Login

    Hourly Weather Vratsa

    Today, 15 July, Monday

    Time Temperature Precipitation Wind Pressure Humidity
    00:00 +14°C° 0 mm 1 mps 704 mmHg 86%
    01:00 +13°C° 0 mm 1 mps 704 mmHg 86%
    02:00 +13°C° 0 mm 1 mps 704 mmHg 87%
    03:00 +13°C° 0 mm 1 mps 704 mmHg 87%
    04:00 +13°C° 0 mm 1 mps 704 mmHg 87%
    05:00 +13°C° 0 mm 1 mps 704 mmHg 87%
    06:00 +14°C° 0 mm 1 mps 704 mmHg 83%
    07:00 +16°C° 0 mm 1 mps 705 mmHg 79%
    08:00 +19°C° 0 mm 1 mps 705 mmHg 73%
    09:00 +20°C° 0.1 mm 1 mps 705 mmHg 69%
    10:00 +20°C° 0.1 mm 2 mps 705 mmHg 66%
    11:00 +21°C° 0.1 mm 2 mps 705 mmHg 62%
    12:00 +21°C° 0.7 mm 2 mps 705 mmHg 61%
    13:00 +23°C° 0.7 mm 2 mps 704 mmHg 61%
    14:00 +23°C° 0 mm 2 mps 705 mmHg 61%
    15:00 +21°C° 0.9 mm 2 mps 705 mmHg 63%
    16:00 +21°C° 0.9 mm 2 mps 705 mmHg 65%
    17:00 +21°C° 0.9 mm 2 mps 705 mmHg 68%
    18:00 +19°C° 0.1 mm 2 mps 704 mmHg 71%
    19:00 +18°C° 0.1 mm 2 mps 704 mmHg 74%
    20:00 +18°C° 0.1 mm 1 mps 704 mmHg 77%
    21:00 +16°C° 0 mm 1 mps 705 mmHg 78%
    22:00 +15°C° 0 mm 1 mps 705 mmHg 78%
    23:00 +15°C° 0 mm 1 mps 705 mmHg 78%

    Tomorrow, 16 July, Tuesday

    Time Temperature Precipitation Wind Pressure Humidity
    00:00 +15°C° 0 mm 1 mps 705 mmHg 79%
    01:00 +14°C° 0 mm 1 mps 705 mmHg 79%
    02:00 +14°C° 0 mm 1 mps 705 mmHg 80%
    03:00 +14°C° 0 mm 1 mps 705 mmHg 81%
    04:00 +13°C° 0 mm 1 mps 705 mmHg 82%
    05:00 +13°C° 0 mm 1 mps 705 mmHg 82%
    06:00 +15°C° 0 mm 1 mps 705 mmHg 79%
    07:00 +16°C° 0 mm 1 mps 706 mmHg 75%
    08:00 +19°C° 0 mm 1 mps 706 mmHg 71%
    09:00 +19°C° 0 mm 2 mps 706 mmHg 68%
    10:00 +20°C° 0 mm 2 mps 706 mmHg 65%
    11:00 +20°C° 0 mm 3 mps 706 mmHg 62%
    12:00 +21°C° 0 mm 3 mps 706 mmHg 61%
    13:00 +21°C° 0 mm 3 mps 706 mmHg 59%
    14:00 +22°C° 0 mm 3 mps 706 mmHg 58%
    15:00 +22°C° 0.1 mm 3 mps 705 mmHg 58%
    16:00 +23°C° 0.1 mm 2 mps 705 mmHg 57%
    17:00 +23°C° 0.1 mm 2 mps 705 mmHg 57%
    18:00 +21°C° 0 mm 2 mps 705 mmHg 63%
    19:00 +20°C° 0 mm 1 mps 705 mmHg 68%
    20:00 +18°C° 0 mm 1 mps 705 mmHg 74%
    21:00 +18°C° 0 mm 1 mps 705 mmHg 75%
    22:00 +16°C° 0 mm 1 mps 706 mmHg 75%
    23:00 +16°C° 0 mm 1 mps 706 mmHg 76%

    Day after tomorrow, 17 July, Wednesday

    Time Temperature Precipitation Wind Pressure Humidity
    00:00 +15°C° 0 mm 1 mps 706 mmHg 76%
    01:00 +15°C° 0 mm 1 mps 706 mmHg 75%
    02:00 +15°C° 0 mm 1 mps 706 mmHg 75%
    03:00 +14°C° 0 mm 1 mps 706 mmHg 75%
    04:00 +14°C° 0 mm 1 mps 705 mmHg 75%
    05:00 +13°C° 0 mm 1 mps 705 mmHg 75%
    06:00 +15°C° 0 mm 1 mps 706 mmHg 70%
    07:00 +18°C° 0 mm 1 mps 706 mmHg 65%
    08:00 +20°C° 0 mm 1 mps 707 mmHg 60%
    09:00 +20°C° 0 mm 2 mps 707 mmHg 57%
    10:00 +21°C° 0 mm 2 mps 707 mmHg 54%
    11:00 +23°C° 0 mm 2 mps 707 mmHg 52%
    12:00 +24°C° 0 mm 2 mps 707 mmHg 49%
    13:00 +25°C° 0 mm 2 mps 707 mmHg 46%
    14:00 +25°C° 0 mm 2 mps 706 mmHg 44%
    15:00 +25°C° 0 mm 2 mps 706 mmHg 44%
    16:00 +25°C° 0 mm 3 mps 706 mmHg 45%
    17:00 +25°C° 0 mm 3 mps 706 mmHg 46%
    18:00 +22°C° 0 mm 3 mps 706 mmHg 54%
    19:00 +21°C° 0 mm 2 mps 705 mmHg 62%
    20:00 +19°C° 0 mm 2 mps 705 mmHg 69%
    21:00 +18°C° 0 mm 2 mps 706 mmHg 71%
    22:00 +18°C° 0 mm 1 mps 706 mmHg 74%
    23:00 +16°C° 0 mm 1 mps 706 mmHg 76%

    18 July, Thursday

    Time Temperature Precipitation Wind Pressure Humidity
    00:00 +15°C° 0 mm 1 mps 706 mmHg 78%
    01:00 +15°C° 0 mm 1 mps 706 mmHg 79%
    02:00 +15°C° 0 mm 2 mps 706 mmHg 80%
    03:00 +14°C° 0 mm 2 mps 706 mmHg 80%
    04:00 +14°C° 0 mm 2 mps 706 mmHg 81%
    05:00 +14°C° 0 mm 1 mps 706 mmHg 81%
    06:00 +16°C° 0 mm 1 mps 706 mmHg 74%
    07:00 +19°C° 0 mm 1 mps 706 mmHg 68%
    08:00 +21°C° 0 mm 1 mps 707 mmHg 61%
    09:00 +22°C° 0 mm 1 mps 707 mmHg 57%
    10:00 +23°C° 0 mm 1 mps 707 mmHg 53%
    11:00 +24°C° 0 mm 2 mps 707 mmHg 50%
    12:00 +25°C° 0 mm 1 mps 707 mmHg 48%
    13:00 +26°C° 0 mm 1 mps 707 mmHg 46%
    14:00 +27°C° 0 mm 1 mps 707 mmHg 44%
    15:00 +27°C° 0 mm 1 mps 707 mmHg 44%
    16:00 +27°C° 0 mm 1 mps 707 mmHg 44%
    17:00 +24°C° 0 mm 0 mps 707 mmHg 44%
    18:00 +23°C° 0 mm 0 mps 707 mmHg 50%
    19:00 +23°C° 0 mm 1 mps 707 mmHg 56%
    20:00 +21°C° 0 mm 1 mps 707 mmHg 62%
    21:00 +20°C° 0 mm 1 mps 707 mmHg 63%
    22:00 +19°C° 0 mm 1 mps 707 mmHg 64%
    23:00 +19°C° 0 mm 1 mps 707 mmHg 65%

    19 July, Friday

    Time Temperature Precipitation Wind Pressure Humidity
    00:00 +19°C° 0 mm 1 mps 708 mmHg 66%
    01:00 +18°C° 0 mm 1 mps 708 mmHg 67%
    02:00 +18°C° 0 mm 1 mps 708 mmHg 68%
    03:00 +18°C° 0 mm 1 mps 708 mmHg 70%
    04:00 +16°C° 0 mm 1 mps 707 mmHg 72%
    05:00 +16°C° 0 mm 1 mps 707 mmHg 75%
    06:00 +19°C° 0 mm 1 mps 708 mmHg 70%
    07:00 +20°C° 0 mm 1 mps 708 mmHg 66%
    08:00 +20°C° 0 mm 0 mps 709 mmHg 62%
    09:00 +24°C° 0 mm 1 mps 709 mmHg 58%
    10:00 +25°C° 0 mm 1 mps 709 mmHg 53%
    11:00 +27°C° 0 mm 1 mps 709 mmHg 49%
    12:00 +28°C° 0.1 mm 1 mps 709 mmHg 46%
    13:00 +28°C° 0.1 mm 1 mps 709 mmHg 44%
    14:00 +29°C° 0.1 mm 1 mps 709 mmHg 42%
    15:00 +29°C° 0.2 mm 1 mps 709 mmHg 42%
    16:00 +29°C° 0.2 mm 1 mps 709 mmHg 42%
    17:00 +28°C° 0.2 mm 1 mps 708 mmHg 43%
    18:00 +26°C° 0 mm 1 mps 708 mmHg 49%
    19:00 +24°C° 0 mm 1 mps 708 mmHg 56%
    20:00 +22°C° 0 mm 1 mps 708 mmHg 62%
    21:00 +21°C° 0.3 mm 1 mps 709 mmHg 68%
    22:00 +19°C° 0.3 mm 2 mps 709 mmHg 74%
    23:00 +18°C° 0.3 mm 2 mps 709 mmHg 80%

    20 July, Saturday

    Time Temperature Precipitation Wind Pressure Humidity
    00:00 +18°C° 0.2 mm 1 mps 709 mmHg 82%
    01:00 +18°C° 0.2 mm 1 mps 709 mmHg 83%
    02:00 +18°C° 0.2 mm 1 mps 710 mmHg 85%
    03:00 +18°C° 0 mm 1 mps 710 mmHg 84%
    04:00 +18°C° 0 mm 1 mps 710 mmHg 84%
    05:00 +18°C° 0 mm 1 mps 710 mmHg 83%
    06:00 +17°C° 0 mm 0 mps 710 mmHg 78%
    07:00 +19°C° 0 mm 0 mps 711 mmHg 74%
    08:00 +20°C° 0 mm 0 mps 711 mmHg 69%
    09:00 +24°C° 0 mm 1 mps 711 mmHg 63%
    10:00 +25°C° 0 mm 1 mps 712 mmHg 58%
    11:00 +27°C° 0 mm 2 mps 712 mmHg 52%
    12:00 +27°C° 0 mm 2 mps 712 mmHg 48%
    13:00 +28°C° 0 mm 2 mps 712 mmHg 45%
    14:00 +29°C° 0 mm 2 mps 712 mmHg 42%
    15:00 +29°C° 0 mm 1 mps 712 mmHg 41%
    16:00 +29°C° 0 mm 1 mps 712 mmHg 40%
    17:00 +29°C° 0 mm 1 mps 711 mmHg 40%
    18:00 +27°C° 0 mm 1 mps 711 mmHg 46%
    19:00 +25°C° 0 mm 1 mps 711 mmHg 51%
    20:00 +21°C° 0 mm 0 mps 711 mmHg 57%
    21:00 +22°C° 0 mm 1 mps 712 mmHg 58%
    22:00 +22°C° 0 mm 1 mps 712 mmHg 58%
    23:00 +21°C° 0 mm 1 mps 712 mmHg 59%
    Show more